Regional Weather Roundup
Issued by NWS

Home | Current Version | Previous Version | Text Only | Print | Product List | Glossary On
Versions: 1 2 3 4 5 6 7 8 9 10 11 12 13 14 15 16 17 18 19 20 21 22 23 24 25 26 27 28 29 30 31 32 33 34 35 36 37 38 39 40 41 42 43 44 45 46 47 48 49 50
000
ASUS43 KTOP 150808
RWRKS

WEATHER ROUNDUP FOR KANSAS
NATIONAL WEATHER SERVICE GOODLAND KS
200 AM CST FRI DEC 15 2017

NOTE:  "FAIR" INDICATES FEW OR NO CLOUDS BELOW 12,000 FEET WITH NO
SIGNIFICANT WEATHER AND/OR OBSTRUCTIONS TO VISIBILITY.

KSZ001>006-013>018-027>032-041>047-150900-
NORTHWEST KANSAS

CITY           SKY/WX    TMP DP  RH WIND       PRES   REMARKS
GOODLAND       CLOUDY    19  14  81 W12       30.18F WCI   7
HAYS           MOCLDY    26  23  88 NW8       30.23F
HILL CITY      CLEAR     24  21  88 W6        30.21F
RUSSELL        CLEAR     24  23  96 W7        30.21S
$$

KSZ061>065-074>080-084>089-150900-
SOUTHWEST KANSAS

CITY           SKY/WX    TMP DP  RH WIND       PRES   REMARKS
DODGE CITY     CLEAR     23  19  85 NW10      30.24F WCI  12
ELKHART        CLEAR     28  24  86 W8        30.26F
GARDEN CITY    CLEAR     18  14  84 NW8       30.25F
GREAT BEND     CLEAR     25  22  88 W9        30.23S
LIBERAL        CLEAR     21  17  84 W9        30.28S
PRATT          CLEAR     26  22  82 W9        30.23S
$$

KSZ066>073-081>083-090>101-150900-
SOUTHEAST KANSAS

CITY           SKY/WX    TMP DP  RH WIND       PRES   REMARKS
CHANUTE        CLOUDY    40  32  73 NW10      30.16R WCI  33
COFFEYVILLE    CLOUDY    42  31  64 NW9       30.17R
HUTCHINSON     MOCLDY    30  28  92 W7        30.19F
MEDICINE LODGE   N/A     29  24  82 NW5       30.24R
NEWTON         CLOUDY    37  30  75 N12       30.19S WCI  29
PARSONS        CLOUDY    40  32  73 NW7       30.17R
WICHITA INTL   PTCLDY    33  30  88 NW8       30.20R
WICHITA JABRA  CLOUDY    37  32  82 NW10      30.19R WCI  30
WICHITA MCCONL PTCLDY    37  30  77 NW10      30.19R WCI  30
WINFIELD       PTCLDY    30  29  96 W6        30.21R
$$

KSZ007>012-019>026-033>040-048>060-102>105-150900-
NORTHEAST KANSAS

CITY           SKY/WX    TMP DP  RH WIND       PRES   REMARKS
CONCORDIA      CLEAR     29  27  92 W8        30.18S
EMPORIA        CLOUDY    36  30  79 NW7       30.16S
LAWRENCE       CLOUDY    37  32  82 W6        30.14S
MANHATTAN      PTCLDY    37  31  78 CALM      30.17S
MARYSVILLE     PTCLDY    32  30  93 NW9       30.15S
OLATHE IND     CLOUDY    35  29  78 NW7       30.14R
OLATHE EXE     CLOUDY    34  28  79 NW8       30.12S
SALINA         CLEAR     34  30  85 NW9       30.20S
TOPEKA BILLARD CLOUDY    37  34  89 W8        30.15S
TOPEKA FORBES  CLOUDY    38  33  82 NW8       30.14S
$$




USA.gov is the U.S. government's official web portal to all federal, state and local government web resources and services.